Theta_e
279 278 278 278 278 278 278 278 278 278 277 277 277 276 276 277 276 276 276 276 276 276 276 276 276 276 276 276 275 275 275 275 276 275 275 275 275 275 275 275 274 275 275 275 275 275 275 275 275 275 276 276 276 277 277 278 278 279 279 279 279 279 279 278 278 278 281 282 283 283 284 283 284 284 284 285 285 285 287 285 285 285 285 285 285
277 277 277 277 277 276 276 275 275 275 275 276 277 276 276 276 276 276 276 276 276 276 275 276 275 275 275 275 275 274 274 274 274 274 274 274 274 276 275 274 274 274 274 274 274 275 275 274 275 275 275 276 276 276 276 277 277 277 278 278 278 279 279 279 278 278 278 281 281 283 282 283 282 284 283 284 284 284 284 285 285 284 285 284 284
276 277 277 276 276 275 275 275 275 275 275 275 275 275 275 275 275 275 275 275 275 275 274 274 275 274 274 274 274 274 274 274 274 274 274 274 274 274 275 274 274 274 274 274 274 274 274 274 274 275 276 275 275 276 276 276 276 276 277 278 277 278 279 279 279 278 278 278 280 280 281 282 282 282 282 283 284 284 284 285 285 285 285 284 284
276 276 276 276 274 274 275 274 274 274 275 274 274 274 274 275 275 275 275 275 274 274 274 274 274 273 273 273 273 273 273 273 273 273 274 274 274 274 274 274 274 274 274 274 274 274 274 274 274 275 275 274 275 275 275 276 276 276 276 277 277 277 278 279 279 278 278 277 279 279 281 281 281 282 282 282 282 282 283 284 284 284 284 284 284
276 276 275 276 275 275 274 274 274 274 274 274 274 274 274 274 274 274 274 274 274 273 273 273 273 273 273 272 272 272 273 273 273 273 273 273 273 273 273 273 273 273 274 274 275 274 274 274 274 275 275 274 275 275 275 275 276 276 276 276 277 277 278 278 278 278 278 277 278 279 280 280 281 282 282 281 282 282 281 281 282 283 283 283 283
275 275 275 275 275 275 274 274 274 274 274 274 274 274 274 274 273 273 274 273 273 273 272 272 272 272 272 272 272 272 272 272 272 272 272 272 273 273 273 273 273 274 274 274 274 274 274 274 275 275 274 274 274 275 275 275 275 275 275 276 276 277 277 277 277 277 277 277 277 277 279 278 279 280 281 280 280 280 281 281 281 281 281 282 283
275 275 275 274 274 274 274 275 274 274 274 274 274 274 273 273 273 272 273 272 272 271 271 271 271 271 271 271 271 271 271 271 271 271 272 272 272 273 273 273 273 274 274 274 274 274 274 274 274 274 274 274 274 274 274 275 275 275 275 276 276 276 276 277 277 277 277 276 277 277 277 278 279 278 280 280 280 280 280 280 280 281 280 281 282
275 275 275 274 274 275 274 274 274 274 274 274 273 272 272 271 271 271 270 270 270 270 270 270 270 270 270 270 270 270 270 270 270 270 271 272 272 272 272 272 272 272 273 273 273 273 273 274 274 274 274 274 274 274 275 275 276 275 277 277 277 277 277 277 277 277 277 277 276 276 277 277 278 278 279 278 278 279 279 278 278 280 280 280 280
275 274 274 274 274 274 274 274 274 273 273 272 271 271 270 270 269 269 269 269 269 269 269 269 268 268 269 269 269 269 269 269 269 270 271 272 272 272 272 272 272 271 271 272 272 272 272 272 273 273 274 276 277 277 278 278 276 276 277 278 277 277 276 276 276 277 277 277 277 278 277 277 277 277 277 277 277 277 279 278 278 280 280 280 280
275 274 274 274 274 273 273 273 272 272 271 270 269 268 268 268 268 267 267 267 267 267 267 267 267 267 266 267 267 267 267 268 269 273 275 273 272 272 272 272 272 271 271 271 271 271 271 272 272 274 275 276 276 277 278 278 278 277 276 276 276 276 276 276 276 276 276 276 276 277 276 276 277 277 277 277 278 279 278 278 278 279 280 279 280
274 274 274 273 273 272 271 271 270 269 269 268 266 266 267 265 264 264 264 264 265 265 266 266 265 265 265 265 265 266 266 267 271 273 275 276 274 273 272 272 272 271 271 270 270 270 271 271 271 272 272 272 272 274 275 276 276 277 278 278 278 276 275 275 275 276 275 275 276 277 277 277 278 278 278 278 279 278 278 279 278 279 278 277 277
274 273 273 272 271 271 270 269 267 267 266 265 265 263 263 263 262 263 262 263 263 263 264 264 264 264 264 264 264 264 265 268 271 273 274 275 276 273 272 271 271 271 271 270 270 270 270 270 269 269 269 269 269 270 271 273 273 274 275 276 277 278 278 276 274 274 274 275 275 276 276 277 278 279 279 279 279 279 279 279 278 278 278 278 278
273 272 271 270 269 268 267 265 265 264 264 263 263 262 261 262 262 262 262 262 262 262 263 263 263 263 263 263 263 263 263 267 270 273 274 275 275 274 272 271 270 270 270 270 269 269 268 268 268 268 268 271 270 269 269 269 272 273 274 275 275 276 277 278 279 276 276 274 274 274 275 275 276 277 280 280 281 279 279 279 279 278 278 278 279
271 270 269 268 267 266 265 264 264 263 263 262 262 261 261 261 261 260 261 262 262 261 261 262 262 262 262 262 262 262 263 266 270 273 274 274 275 274 271 271 270 269 269 269 268 268 267 267 267 267 268 268 269 269 269 269 269 270 270 271 271 273 275 276 276 277 276 274 274 273 275 275 274 276 277 279 278 278 279 279 280 280 279 279 280
268 268 267 267 265 264 265 263 262 262 262 261 260 260 260 259 261 261 260 261 261 260 260 260 260 260 261 261 261 261 262 268 271 272 273 274 274 274 270 269 269 268 268 268 268 268 268 268 267 267 267 268 268 270 269 269 270 269 270 270 270 271 271 272 272 273 273 273 273 273 273 275 275 276 277 279 279 279 279 278 279 280 281 282 282
268 267 265 264 264 265 263 262 261 261 262 260 259 260 260 259 259 260 259 260 258 259 260 258 260 259 260 260 260 260 261 267 269 271 272 273 274 270 268 268 267 267 267 268 268 268 268 268 267 268 268 268 270 273 273 271 270 269 269 270 270 271 271 274 276 277 275 275 275 275 275 276 278 277 277 277 278 278 280 280 281 280 279 278 277
266 266 264 264 263 263 263 261 261 260 260 259 258 259 260 259 259 258 258 259 259 259 258 259 259 259 259 259 259 259 260 264 269 270 271 273 271 268 268 267 267 267 267 267 268 268 268 268 268 268 268 268 271 274 274 274 270 270 270 270 270 271 271 273 276 278 278 278 279 279 280 280 281 281 282 282 280 280 278 277 276 278 278 276 277
265 264 264 262 263 262 262 260 260 259 258 257 257 259 258 258 257 257 258 258 258 258 258 258 258 258 259 258 259 259 260 263 268 270 271 271 271 268 267 267 267 267 267 268 268 268 268 270 270 269 268 268 272 274 275 274 272 271 271 271 270 270 271 273 273 273 277 278 278 278 279 279 279 280 280 280 280 279 275 273 275 277 276 278 277
264 264 264 263 262 260 260 259 259 258 257 258 257 257 257 257 257 256 257 256 257 257 258 257 257 258 258 258 261 261 260 261 266 268 270 271 270 268 268 267 267 267 267 267 268 268 268 269 271 272 271 272 276 276 277 275 273 272 272 271 270 270 271 272 271 271 271 271 272 273 274 275 275 274 274 278 279 278 276 275 275 274 273 274 276
264 263 263 262 261 259 259 258 258 257 258 257 256 256 256 256 256 256 256 256 257 257 257 257 257 257 258 258 258 259 259 259 261 268 270 271 272 269 268 267 267 267 267 267 267 267 268 268 270 273 275 276 276 277 277 277 274 273 272 271 270 270 273 272 272 272 272 272 272 273 273 274 274 274 274 274 275 275 275 274 274 274 273 273 274
262 262 262 260 258 258 257 257 257 256 256 256 257 256 255 257 257 255 256 256 256 256 256 256 256 257 257 258 258 258 259 259 261 268 270 271 272 271 268 268 268 268 267 267 267 267 268 268 269 272 275 276 276 277 277 277 277 274 273 272 272 273 275 273 273 276 274 274 273 273 273 273 273 274 274 274 274 274 275 276 275 275 274 274 274
261 260 259 259 257 256 255 255 256 255 255 255 254 255 255 254 255 255 255 255 255 255 255 256 256 256 257 258 258 258 260 262 261 266 269 271 272 273 270 270 271 270 269 269 269 269 270 270 270 272 275 276 277 277 278 277 278 275 274 277 278 278 275 275 274 273 273 272 271 271 271 271 271 271 272 273 274 275 275 275 276 276 276 276 275
261 259 258 257 256 255 254 254 254 254 253 254 254 254 254 253 253 253 254 254 254 254 255 255 256 256 257 257 258 258 259 260 265 264 269 271 272 273 274 273 275 272 270 269 269 270 271 271 271 274 276 276 277 278 278 278 277 275 278 278 278 279 277 274 273 271 270 270 269 269 269 269 269 270 271 271 272 273 274 275 275 276 276 277 277
259 257 256 255 254 254 254 253 253 253 253 253 252 252 253 252 252 252 254 254 254 254 255 255 255 255 255 257 257 259 259 260 264 268 268 271 273 274 274 275 275 272 272 271 271 271 271 271 272 275 276 277 277 277 277 277 276 278 278 278 278 277 274 272 271 270 269 269 268 268 268 269 269 269 270 271 272 272 273 274 275 275 276 276 277
256 255 254 253 252 251 251 251 251 251 251 252 252 253 253 252 254 252 253 254 254 254 255 254 254 255 255 256 258 260 262 263 264 266 270 272 273 273 274 275 275 276 272 271 272 272 274 277 277 277 277 278 278 278 277 276 277 277 277 277 276 274 273 272 270 269 267 267 267 268 268 269 269 270 271 271 272 273 272 273 274 275 276 276 277
254 254 251 251 251 252 252 252 252 252 252 252 252 252 253 253 254 254 254 254 254 254 254 254 254 255 256 258 260 262 264 265 265 266 268 270 271 272 273 274 274 275 275 273 275 276 276 276 277 277 276 275 273 272 272 273 276 277 277 276 272 271 270 269 268 267 267 267 268 268 269 270 270 271 272 272 271 271 271 271 271 271 272 273 273
255 254 253 252 251 251 251 251 252 252 251 252 252 252 253 253 253 254 254 254 253 254 254 255 256 257 258 260 262 263 264 264 266 267 268 268 268 269 270 271 273 274 272 272 273 272 273 274 273 275 275 276 276 276 275 275 272 271 270 269 269 268 268 267 267 267 268 268 268 268 269 270 271 271 270 271 270 271 272 272 271 271 271 272 272
255 254 251 250 251 251 251 255 255 253 253 251 252 253 253 253 253 254 254 254 254 255 255 256 258 259 260 261 262 262 264 266 267 267 268 268 270 271 272 272 271 271 271 272 272 273 272 273 272 271 270 270 270 270 270 269 269 269 268 268 268 268 270 271 272 270 270 270 270 270 270 271 270 270 271 271 271 271 272 271 271 270 272 272 271
253 251 251 250 251 253 253 253 252 252 253 251 252 254 253 254 254 255 256 257 257 257 257 258 259 261 262 262 263 265 266 266 267 271 271 274 272 271 271 271 272 272 273 274 272 271 269 268 268 268 267 267 266 266 266 266 266 266 266 267 267 268 268 269 268 268 269 269 269 270 270 270 270 270 270 270 270 270 271 271 272 271 272 272 272
251 252 252 251 250 252 252 251 250 252 252 252 252 252 257 262 261 259 260 264 267 269 268 265 266 267 267 268 268 266 266 267 272 274 274 274 275 275 275 275 274 272 272 273 270 266 265 263 263 263 263 263 264 264 265 265 265 266 266 268 268 268 268 268 269 269 270 270 270 270 270 270 270 270 270 270 270 271 271 272 271 272 272 272 272
253 253 252 252 253 253 251 252 252 252 252 252 252 253 253 255 262 265 266 266 267 269 270 271 271 271 269 268 269 271 272 272 273 273 274 274 274 274 273 273 272 271 271 267 264 261 260 259 260 261 262 262 263 263 263 263 263 263 264 265 265 266 266 267 268 270 270 270 271 271 271 271 270 271 270 270 270 271 271 272 273 273 272 272 272
255 254 253 253 254 255 254 253 253 253 253 253 253 251 252 252 254 260 264 265 266 267 268 269 270 270 270 270 268 267 269 271 272 273 273 273 272 272 272 271 270 269 269 267 259 258 258 258 259 259 260 260 260 261 261 261 261 261 262 262 263 264 265 266 268 269 269 269 270 271 271 271 271 271 271 271 271 271 271 272 273 273 273 274 274
254 253 253 253 254 254 254 253 253 253 252 252 252 251 252 252 252 253 257 262 264 265 266 268 269 268 269 269 270 270 270 271 272 272 273 272 271 271 270 269 268 268 266 259 256 256 257 257 257 258 259 258 259 259 259 260 260 260 261 261 261 263 265 266 268 267 268 269 271 271 271 271 271 271 271 271 271 271 271 272 273 273 274 274 274
254 253 253 253 253 253 253 253 253 253 253 253 252 253 252 252 252 253 253 254 256 260 262 263 265 266 266 268 269 269 269 270 271 272 272 270 270 270 268 263 265 265 263 257 256 256 256 257 257 257 257 258 258 258 258 259 259 259 260 261 262 263 265 266 266 267 268 269 270 271 271 271 271 270 270 271 272 272 273 273 273 274 275 275 275
252 254 255 255 253 253 254 255 254 253 253 253 252 252 253 254 254 254 253 253 253 253 254 256 260 263 263 265 266 268 269 270 270 271 270 269 269 268 264 257 256 256 256 254 255 255 256 256 256 256 257 256 257 258 258 258 258 259 260 261 262 263 264 264 265 266 267 269 270 270 271 271 271 271 271 271 271 271 271 273 274 275 275 276 276
253 253 254 255 254 254 254 253 254 253 253 252 253 253 253 254 254 253 253 254 253 253 253 254 255 260 264 265 266 267 268 269 270 270 268 268 267 265 255 254 254 255 255 255 255 256 256 256 256 256 256 257 257 257 258 258 259 259 260 261 261 262 262 263 264 265 267 268 269 269 271 271 272 271 271 271 272 272 273 274 275 275 276 276 276
253 253 254 254 253 254 253 252 252 253 256 256 255 254 254 254 253 252 252 252 252 252 253 253 254 255 259 257 260 264 267 268 269 268 266 265 265 258 252 254 254 255 255 255 255 256 255 255 256 256 256 257 257 257 258 258 259 259 261 261 261 262 262 263 265 266 266 267 267 267 268 269 271 272 272 271 272 273 274 274 275 275 275 275 276
253 253 253 252 253 252 252 252 252 255 255 255 254 254 253 252 252 252 252 252 253 253 252 252 255 253 253 254 259 259 260 265 267 263 261 260 257 254 254 254 255 254 254 255 255 255 255 255 256 256 256 257 257 258 258 258 259 260 260 261 262 262 265 264 265 265 265 266 266 266 267 268 269 270 272 273 273 273 274 274 274 274 275 275 275
251 254 256 257 257 254 253 253 253 253 252 252 252 252 252 252 251 251 250 250 250 251 252 251 251 252 253 254 255 258 260 261 259 256 255 254 254 253 253 253 253 254 254 255 255 255 255 255 256 256 257 257 257 258 258 259 260 260 261 262 262 262 263 263 263 264 264 264 265 265 266 266 268 269 270 271 272 273 274 274 274 274 274 274 274
253 253 255 258 256 258 257 256 254 252 252 250 251 249 250 251 250 250 250 249 250 250 251 251 252 252 253 254 255 258 260 259 257 255 253 253 254 254 253 253 254 254 254 254 255 255 256 256 256 256 257 257 258 258 259 260 260 261 262 262 262 262 263 263 263 263 264 264 264 265 265 266 267 268 269 270 271 272 273 273 273 273 274 273 273
251 254 254 256 256 255 254 253 253 252 250 250 250 250 250 251 251 251 250 250 251 251 251 251 252 252 254 257 263 264 261 257 254 253 253 253 253 253 253 253 253 253 254 254 254 255 255 256 256 257 257 257 258 259 259 260 261 262 262 263 263 263 263 263 263 264 264 264 264 264 265 265 266 267 267 268 271 271 271 273 273 274 273 273 273
250 250 250 251 253 252 251 251 251 253 251 251 250 249 251 251 250 251 251 251 251 251 251 251 252 252 256 262 263 264 260 254 252 252 252 252 252 252 253 253 252 252 253 253 254 254 255 256 256 257 257 258 258 259 260 260 261 262 263 263 263 263 263 263 263 264 264 264 264 264 264 265 266 267 267 269 268 268 269 270 271 272 272 272 271
250 249 250 250 250 250 250 251 249 248 248 248 249 252 252 251 250 250 251 251 251 251 251 251 252 252 253 259 259 260 254 251 252 252 251 252 252 252 252 252 252 252 253 253 254 254 254 255 256 256 257 258 258 259 260 260 262 262 263 263 263 263 263 264 264 264 264 264 264 264 264 265 265 265 266 266 267 268 268 268 269 269 269 269 270
250 250 250 250 250 249 250 249 249 249 248 251 252 251 251 250 250 249 249 249 250 250 251 251 252 252 252 254 255 252 250 250 249 249 251 252 252 252 252 252 252 252 252 252 253 253 254 254 255 256 256 257 258 259 260 261 262 263 263 263 263 264 264 264 264 264 264 264 264 264 264 264 265 265 265 266 266 266 267 267 267 267 267 267 267
249 249 249 250 249 249 249 248 249 249 250 250 249 248 250 248 249 248 249 249 250 250 251 251 252 252 252 252 252 251 251 250 251 251 251 251 251 251 251 251 251 251 252 252 252 252 253 253 254 254 255 256 257 258 260 262 263 263 264 264 263 264 264 264 265 265 265 264 264 264 264 264 264 264 265 265 266 266 266 266 266 267 267 266 265
250 249 250 249 249 249 248 247 249 247 248 247 248 247 247 246 247 248 249 250 250 250 250 251 251 251 251 251 251 251 250 249 250 250 251 251 250 251 251 251 251 251 251 251 252 252 252 253 253 254 254 255 256 257 259 261 262 264 264 264 264 265 266 266 266 265 265 264 264 264 264 264 264 264 265 265 265 266 265 266 266 266 266 266 266
248 249 249 249 249 249 249 249 247 247 246 247 247 247 248 248 247 249 250 251 251 251 251 251 250 250 250 250 250 249 250 250 250 250 250 250 250 250 250 250 250 251 251 251 251 252 252 252 252 253 253 254 255 256 258 260 261 263 264 265 265 265 266 267 267 266 265 265 264 264 264 264 264 264 264 264 264 265 265 265 265 265 266 267 267
249 248 248 249 247 247 248 246 248 251 249 249 248 248 249 248 248 249 247 249 249 250 250 250 249 249 250 249 249 249 249 249 250 250 250 250 249 250 249 249 250 250 250 251 251 251 252 252 252 252 253 253 254 255 257 258 260 262 264 265 265 265 266 267 267 266 266 265 264 264 264 263 263 263 264 264 264 264 264 264 265 266 266 266 267
247 247 247 247 247 249 247 248 248 247 248 248 247 249 249 248 248 247 249 248 249 250 248 249 249 249 248 249 249 249 249 250 249 249 249 249 249 249 249 249 250 250 250 250 250 251 251 251 251 252 252 253 253 254 255 257 259 261 263 264 264 265 266 267 267 266 265 264 263 263 263 263 263 263 263 263 264 264 264 264 264 265 265 265 265
247 247 247 247 248 249 248 247 248 247 247 246 247 247 248 248 247 248 249 249 249 249 249 248 249 248 248 248 249 249 248 249 249 249 249 249 249 249 249 249 249 249 249 250 250 251 251 251 251 251 252 252 253 254 254 256 257 259 261 262 264 265 266 267 267 266 265 264 262 262 262 262 262 263 263 263 263 263 263 263 263 264 264 263 263
247 247 247 248 248 248 247 246 247 247 246 247 247 247 248 248 248 248 249 249 249 249 249 248 247 247 248 247 248 248 248 248 248 249 249 249 249 249 249 249 249 249 249 249 250 250 250 250 251 251 251 252 253 253 254 254 256 258 260 262 264 265 266 267 267 267 266 264 262 261 261 261 261 261 262 263 262 262 263 263 263 262 262 262 262
Wind_Speed
4 4 5 5 6 6 5 5 5 5 5 5 5 4 3 4 4 3 4 6 5 6 6 6 6 6 7 7 8 8 9 10 8 8 7 8 7 6 7 7 8 8 7 8 4 5 6 7 8 6 5 7 7 6 6 6 6 6 6 6 7 6 6 7 11 15 11 5 11 11 8 6 10 5 10 7 7 8 9 8 7 7 8 8 8
5 4 4 5 5 5 4 4 4 4 5 5 5 5 5 5 4 5 5 5 5 5 5 5 4 5 4 5 4 4 4 4 5 5 6 7 7 5 6 7 7 8 7 9 8 7 8 9 9 6 5 8 8 8 7 7 7 7 7 6 7 8 5 7 11 11 17 8 8 10 10 6 12 6 7 11 7 6 9 9 7 7 8 8 7
4 4 5 5 4 4 4 4 4 4 4 4 4 3 3 3 2 3 3 3 3 3 3 3 3 3 3 4 4 4 4 4 4 4 5 5 7 7 6 7 8 8 9 9 9 8 9 9 10 7 7 9 9 8 7 7 7 7 9 7 8 8 7 6 8 13 15 14 7 10 9 8 9 12 6 7 9 7 9 9 9 7 6 7 8
4 4 4 4 3 3 3 3 3 3 3 2 2 2 2 1 1 2 1 2 2 2 3 3 3 3 3 4 4 4 5 5 4 4 5 6 7 8 7 7 7 8 8 9 9 9 9 11 10 9 8 10 11 9 7 7 7 8 9 9 8 9 8 6 8 11 12 15 11 8 9 10 11 10 7 7 9 9 8 10 6 8 8 7 7
4 4 4 4 3 3 3 2 3 2 2 1 1 1 1 1 2 3 2 3 3 3 3 3 3 4 5 5 5 5 5 5 5 5 5 5 6 7 7 7 8 8 9 9 9 9 10 10 11 10 9 11 12 10 8 10 9 9 10 9 9 8 8 8 9 9 12 15 15 9 7 10 9 12 10 10 10 9 7 9 9 8 8 7 7
3 4 3 4 3 2 2 2 2 0 0 1 1 1 2 3 3 3 4 4 4 4 4 5 5 5 5 5 5 5 5 5 5 6 6 5 6 7 7 8 8 9 9 9 9 9 9 11 10 10 10 11 13 12 10 11 11 11 11 11 10 9 10 11 10 10 11 14 13 14 8 9 10 9 10 8 9 12 11 9 7 6 7 8 9
3 3 3 3 3 2 2 1 0 0 0 0 1 2 3 3 4 4 4 4 4 5 4 4 4 4 5 4 5 5 6 5 6 6 6 6 7 8 9 9 9 9 9 10 10 10 10 10 10 10 10 11 12 13 13 13 11 13 12 12 11 10 11 11 10 11 12 13 14 12 12 9 8 12 8 6 8 9 12 12 11 6 7 8 10
4 3 4 3 3 3 2 1 1 0 1 1 2 2 3 3 3 3 3 3 3 4 5 5 5 4 5 4 5 5 5 5 5 5 6 7 8 8 9 10 10 10 10 10 9 9 10 10 10 9 10 10 11 12 12 12 11 12 11 10 10 11 11 11 11 11 12 13 13 14 11 10 9 8 8 4 8 11 7 7 13 13 9 6 8
4 4 4 4 4 3 2 1 1 1 1 1 2 3 3 3 2 2 2 3 3 3 4 5 5 5 4 5 5 5 5 6 5 6 8 9 8 9 9 10 10 11 11 10 9 10 9 10 10 10 13 18 23 20 19 18 14 13 12 10 10 10 11 11 12 12 12 12 14 12 13 12 10 9 10 8 9 12 9 4 8 11 10 8 8
5 5 5 5 4 3 3 1 2 1 1 2 2 2 2 2 2 2 2 2 2 3 3 4 3 5 6 5 4 5 5 4 8 15 14 10 10 9 9 10 10 10 10 10 10 8 8 9 9 17 19 19 19 20 20 20 21 17 14 13 12 12 12 12 11 10 11 13 14 14 15 14 13 10 10 10 8 7 10 8 10 12 11 11 11
5 6 6 4 4 4 3 2 1 1 1 1 1 1 3 2 2 2 3 3 3 4 4 5 4 5 5 6 6 6 5 6 14 16 16 18 13 12 12 12 12 12 12 12 12 12 11 11 10 12 14 15 14 20 21 22 22 23 24 24 20 16 13 13 12 10 10 11 11 12 13 17 16 10 10 10 9 9 10 10 10 10 12 10 14
7 6 5 5 4 4 3 2 1 1 1 2 2 3 2 3 3 3 3 3 4 3 4 4 5 5 5 5 6 6 6 10 16 17 18 18 16 13 12 11 11 11 12 12 12 12 13 12 11 9 10 11 13 12 14 19 21 22 23 23 24 25 24 18 16 14 12 12 12 15 16 17 15 9 8 8 10 9 9 10 11 11 12 12 10
6 6 5 5 4 3 2 1 1 1 2 2 2 2 3 3 4 4 4 3 3 4 6 6 6 5 6 7 7 7 6 12 17 18 18 18 19 16 11 11 12 11 12 13 13 12 12 12 12 10 9 17 13 11 11 12 16 21 22 21 21 21 21 23 23 17 13 14 15 18 16 16 18 15 11 9 9 12 10 11 10 10 11 12 13
6 6 5 4 4 3 2 1 1 1 1 2 2 3 3 4 3 3 3 4 4 4 4 5 5 6 6 8 8 8 8 12 18 19 19 20 19 17 11 12 11 12 12 12 12 12 13 12 12 12 11 12 12 13 13 13 13 13 13 12 13 15 19 22 23 25 22 16 14 17 18 13 16 17 15 15 14 12 11 12 9 11 11 13 13
5 6 5 4 4 2 2 1 1 1 1 2 3 3 3 3 3 3 3 4 5 5 6 6 5 5 6 7 8 9 7 16 18 19 19 20 21 18 11 11 10 11 11 12 13 13 13 12 13 14 13 13 12 15 15 15 14 12 12 12 13 13 14 15 15 14 14 13 15 17 18 16 17 19 17 11 11 10 12 14 15 14 15 15 15
6 5 5 4 3 3 2 1 0 1 1 2 3 3 3 3 4 4 3 3 3 3 4 3 6 6 6 7 8 10 8 16 18 19 20 20 22 12 10 11 11 11 11 12 13 12 12 12 13 14 14 14 18 24 22 18 15 15 15 13 13 12 12 15 21 20 19 16 15 17 17 18 21 19 18 17 15 14 14 14 14 14 16 17 18
6 5 4 4 4 2 2 1 1 1 1 3 3 3 4 4 4 3 5 4 5 4 4 4 5 6 8 7 9 10 8 12 18 20 20 21 17 9 10 9 11 11 13 14 13 13 12 13 13 14 15 15 20 26 26 25 17 15 15 15 12 12 12 11 18 24 24 26 28 30 31 31 30 29 30 31 23 17 13 14 16 14 14 15 14
5 5 5 4 4 3 2 1 1 1 2 3 3 2 2 3 3 3 4 6 6 5 5 6 5 5 7 8 7 11 11 12 18 20 21 21 18 12 10 8 10 12 13 13 12 12 13 21 19 17 18 18 25 28 28 23 16 14 13 13 14 12 11 11 11 13 24 29 30 31 30 29 29 29 30 29 28 21 12 15 15 11 14 13 15
6 6 6 4 3 3 2 2 2 1 1 2 2 3 3 3 3 3 3 4 6 5 6 7 7 5 6 8 12 13 11 12 17 19 21 20 16 10 9 9 8 8 11 12 12 13 12 15 23 22 21 23 31 28 29 24 16 12 12 12 14 14 13 12 12 13 12 12 14 15 17 20 19 16 17 28 28 23 15 13 12 12 15 15 15
5 5 5 4 3 2 2 2 1 0 1 2 2 2 3 3 3 4 4 4 6 5 6 6 9 8 6 8 8 8 11 11 11 21 20 21 21 12 9 8 10 12 10 10 10 10 10 11 15 24 29 29 29 30 28 29 19 14 12 12 13 14 11 14 14 13 15 14 15 14 16 14 14 14 13 13 14 15 14 13 12 12 12 16 17
6 5 4 3 2 2 2 1 0 1 1 2 2 2 3 3 4 4 5 5 5 6 7 7 8 9 7 7 7 8 7 11 12 20 21 21 22 18 10 10 11 11 11 11 10 10 8 8 8 18 28 29 29 30 30 30 28 19 14 12 12 17 20 14 15 19 15 12 11 11 10 10 10 10 11 11 11 11 11 13 13 13 14 14 15
6 4 4 2 2 2 1 0 0 1 1 1 2 3 3 3 3 4 4 5 7 8 6 7 8 9 7 6 6 8 9 14 12 18 21 22 22 23 14 11 13 13 13 10 11 11 11 10 9 18 29 30 30 30 32 31 32 20 16 24 30 30 21 14 12 10 9 10 9 10 10 9 10 9 10 11 11 10 11 11 13 13 14 14 15
6 4 3 3 1 1 0 1 1 0 1 1 2 3 3 3 4 3 4 5 6 8 7 7 8 9 9 6 5 7 8 9 16 15 20 22 23 22 24 20 24 16 12 14 13 13 9 12 13 25 30 31 31 31 31 34 28 18 29 30 28 28 24 12 9 9 9 10 10 10 10 10 10 11 10 10 10 11 11 11 11 13 15 16 19
4 4 3 2 1 1 1 1 1 1 1 2 2 3 4 3 3 3 4 5 6 7 6 6 7 8 10 9 6 6 7 8 11 18 18 22 22 24 24 25 25 16 14 13 12 13 13 14 16 29 31 31 32 30 29 27 20 27 28 29 28 25 14 12 10 10 10 10 10 12 13 11 10 11 11 10 11 10 11 11 13 14 14 14 16
5 4 4 2 1 1 1 1 1 2 2 2 2 3 4 2 4 2 3 5 6 7 7 5 7 8 8 9 9 7 7 7 8 11 19 22 24 24 24 26 26 27 18 13 14 14 20 31 33 32 32 31 32 31 25 24 27 27 28 28 26 12 10 10 11 10 10 11 12 13 13 12 11 13 11 11 12 12 12 12 12 13 15 15 16
4 4 3 2 2 0 1 2 2 3 3 3 3 3 4 4 4 5 4 6 6 7 7 6 6 7 8 8 9 9 9 9 10 9 10 16 17 22 26 26 26 26 25 21 27 32 31 30 34 32 28 24 18 13 11 12 22 27 27 24 13 12 11 10 11 11 12 12 12 13 13 11 12 12 11 11 11 12 10 12 12 12 12 12 12
5 4 4 3 1 1 2 3 3 3 2 3 3 3 3 3 4 5 5 6 6 6 7 6 7 7 8 9 9 9 10 9 9 9 9 10 10 12 13 13 18 20 14 13 17 16 19 19 15 20 20 27 27 24 22 20 15 12 10 10 10 10 10 9 10 11 12 11 12 12 12 12 11 11 12 11 13 13 11 11 11 12 12 11 14
6 6 4 3 2 3 3 4 3 3 3 2 3 4 4 4 4 6 6 6 6 7 6 7 7 7 7 9 11 11 9 8 8 9 10 10 10 10 10 11 11 10 12 11 12 13 13 15 18 13 12 11 9 6 7 8 9 10 10 9 10 11 13 18 18 13 12 12 12 13 12 12 12 11 11 10 11 11 10 11 12 13 11 11 12
5 4 3 3 4 3 3 4 3 3 4 4 5 5 5 5 6 7 7 7 8 9 8 8 9 10 10 7 6 7 9 9 8 14 16 20 17 14 12 11 11 10 16 25 18 13 11 11 10 10 7 9 9 10 10 9 9 9 11 10 10 10 10 9 10 11 11 11 12 12 14 12 12 11 11 11 11 10 10 10 11 10 12 13 14
5 5 4 4 4 4 3 4 3 4 4 5 5 5 8 12 9 7 6 12 18 20 17 10 8 8 8 8 6 8 7 10 20 24 22 23 24 25 23 25 24 19 22 27 18 10 9 9 9 9 10 9 10 9 9 9 10 11 10 12 11 10 10 9 9 11 10 11 11 13 12 12 12 10 11 10 12 10 11 13 13 12 13 12 13
5 5 5 6 6 5 4 4 4 4 5 5 4 5 5 6 12 16 16 16 16 17 18 20 20 19 11 8 8 16 19 21 21 21 23 22 22 23 23 23 24 24 23 16 9 8 9 9 9 9 10 10 10 10 11 11 12 11 11 11 11 12 13 9 10 10 12 11 14 12 12 10 11 9 11 10 12 10 10 10 11 12 12 12 11
8 7 6 5 5 5 4 4 4 4 5 4 5 4 4 6 8 10 11 11 13 15 17 18 17 13 12 12 11 8 13 17 20 21 21 20 20 20 21 22 22 20 19 16 8 7 8 8 9 10 9 10 10 11 11 11 10 11 11 12 11 10 12 11 12 11 14 13 14 11 10 9 10 10 11 10 11 10 11 10 10 10 11 13 12
8 6 6 5 5 5 5 5 4 5 5 5 5 4 4 4 7 9 8 12 13 12 12 12 8 8 12 14 16 15 15 16 19 19 19 18 18 18 20 20 19 17 15 8 6 7 7 8 7 8 9 9 9 10 10 10 9 10 10 13 13 12 11 13 16 15 14 13 12 11 11 10 10 9 10 9 9 10 11 12 12 13 14 15 14
7 6 6 6 6 5 5 5 5 5 4 5 5 5 4 4 5 5 7 8 11 9 1 3 7 11 13 16 17 16 16 17 17 17 17 17 17 17 18 14 16 13 10 6 5 6 7 8 7 7 8 9 8 9 9 9 10 10 10 11 12 12 13 13 12 13 13 14 13 13 12 11 10 9 10 9 10 10 10 11 12 12 14 13 10
6 5 7 6 5 5 5 4 5 4 4 5 5 5 5 4 4 4 4 5 5 6 11 9 7 8 10 11 13 15 15 16 16 15 16 16 16 17 16 9 11 9 6 2 3 4 6 7 8 8 9 10 10 9 10 11 10 9 10 11 11 11 11 11 11 12 13 12 12 13 12 12 11 9 10 9 10 9 12 11 10 10 11 11 11
5 5 5 5 5 4 4 5 4 5 5 5 5 4 5 5 5 4 4 4 5 7 7 8 8 11 16 12 12 14 16 16 15 14 14 15 15 15 8 8 8 8 9 8 7 7 6 7 7 8 8 9 9 9 9 10 10 10 10 10 11 11 12 12 13 14 13 12 13 14 14 12 11 10 9 10 13 13 12 11 9 10 10 9 9
4 4 4 4 4 4 4 4 4 5 6 6 5 5 5 5 5 4 5 5 6 5 7 8 8 11 8 4 8 16 19 17 15 14 14 14 15 6 2 5 6 8 8 8 9 9 8 7 7 8 8 9 9 9 9 10 10 10 11 11 10 12 11 11 13 14 14 12 13 13 13 13 13 12 10 11 11 11 11 11 10 11 10 10 10
4 5 4 3 3 4 4 5 5 7 6 5 5 4 4 4 4 4 6 5 5 5 6 6 5 6 9 10 10 7 11 16 15 10 9 10 10 7 6 5 5 6 7 7 7 7 8 9 7 8 9 9 9 10 10 10 10 10 10 11 11 11 19 17 17 14 14 12 12 12 13 12 11 12 12 11 11 11 11 10 9 9 9 10 8
4 5 8 8 7 5 5 5 5 6 6 5 4 5 6 5 5 5 5 5 5 5 6 5 6 6 7 6 7 9 10 7 7 8 8 6 5 4 5 5 5 5 5 6 7 7 8 9 9 9 9 9 9 10 10 10 10 10 10 11 11 11 12 11 12 12 12 11 12 12 12 12 12 11 11 12 12 11 11 10 10 9 9 9 7
5 4 6 10 7 7 5 6 5 5 7 4 6 4 5 6 5 5 4 4 5 5 5 5 7 6 6 5 7 7 6 6 6 7 7 7 6 6 4 6 6 6 7 8 8 8 9 9 9 9 10 10 10 10 10 10 10 10 10 10 10 11 12 11 11 12 12 12 12 12 12 12 12 11 11 11 11 12 12 11 10 9 8 8 7
5 5 4 6 7 6 5 6 6 6 5 6 6 6 6 6 5 6 5 5 5 5 5 6 7 7 6 9 14 13 5 4 6 6 7 7 7 7 7 6 7 8 8 7 8 8 8 9 9 9 10 10 10 10 10 10 10 10 10 10 10 11 11 11 11 11 12 12 12 12 12 12 12 11 12 11 13 12 11 10 10 8 7 7 7
5 5 5 5 5 4 5 7 7 6 5 7 6 6 6 6 5 5 6 5 6 6 5 6 6 6 9 16 13 13 6 3 5 7 6 6 7 7 7 6 6 6 7 7 8 9 9 9 9 9 10 10 10 11 10 10 11 11 11 11 11 11 11 11 12 12 12 12 12 12 12 12 13 12 12 12 10 9 8 8 8 7 6 5 3
5 5 5 5 5 6 6 7 4 5 6 6 6 5 6 6 5 6 6 6 5 5 5 6 6 5 6 10 10 10 4 4 5 5 5 6 7 7 7 7 6 6 6 7 7 7 8 9 9 9 9 10 10 10 11 11 11 11 11 11 11 11 11 11 12 12 12 12 12 13 14 12 12 10 10 10 10 9 8 8 7 6 5 3 1
5 5 6 5 6 4 6 5 6 6 5 6 6 7 6 6 6 5 5 5 5 5 5 6 6 6 6 6 6 5 5 5 5 5 5 6 6 7 7 6 6 6 7 7 7 6 7 8 9 9 9 9 9 10 10 10 10 10 11 12 12 12 12 11 12 12 12 11 11 12 12 12 11 10 9 9 9 8 8 7 7 6 5 4 2
5 5 5 6 5 6 6 4 5 6 7 6 5 5 7 4 6 6 5 5 6 6 5 5 5 5 6 6 5 5 5 5 6 6 6 6 7 7 7 7 7 7 7 7 6 7 7 7 8 9 10 9 9 10 10 10 10 9 9 11 12 12 12 12 12 12 12 11 9 8 9 10 10 10 9 9 8 8 7 7 6 5 5 5 3
5 5 6 6 6 7 6 6 7 5 6 6 6 7 6 5 6 5 6 6 6 5 5 5 5 4 6 6 5 6 6 5 6 5 7 6 6 7 6 6 6 7 7 7 7 7 7 7 7 8 10 10 11 10 10 11 11 10 10 10 11 11 12 11 11 11 11 11 10 9 9 10 10 9 10 9 8 7 6 6 6 5 4 4 3
4 6 6 6 6 7 6 6 4 6 5 6 6 6 6 6 6 6 7 7 6 7 6 5 5 5 5 5 5 6 6 5 5 6 6 7 7 7 6 6 6 7 7 7 6 7 7 7 7 8 9 9 10 11 11 10 10 10 10 10 10 12 12 12 11 10 10 10 10 9 9 8 9 8 10 9 8 7 7 6 6 5 5 4 4
6 6 6 6 4 5 5 4 6 6 6 7 6 6 7 6 5 6 6 6 6 6 5 5 5 6 6 5 5 5 5 5 6 6 6 6 6 6 6 6 7 7 7 8 7 7 7 7 7 8 8 9 10 10 10 11 11 11 11 10 11 14 19 20 12 11 10 10 9 9 9 9 8 9 9 9 8 8 7 7 6 6 5 5 5
5 6 6 5 4 5 6 6 7 6 6 6 6 6 7 6 6 5 6 5 6 5 5 5 5 5 5 6 6 6 5 6 6 6 6 6 6 6 6 6 6 7 7 8 8 8 8 7 7 7 8 8 8 9 10 11 12 11 12 11 15 25 24 23 15 11 13 10 8 8 8 8 8 9 9 9 9 8 7 7 7 6 6 6 6
5 4 4 4 6 6 6 6 5 6 6 6 6 6 6 6 6 6 6 5 5 5 5 5 6 6 5 5 7 6 5 6 6 6 7 7 7 6 6 6 6 6 6 7 8 8 7 7 8 8 8 8 8 8 9 9 10 11 11 14 23 25 23 23 18 17 13 8 9 7 8 7 8 7 8 8 8 8 8 8 7 7 7 7 6
5 4 5 4 5 5 4 4 6 6 6 6 6 6 6 6 6 6 5 5 6 6 5 5 5 5 5 5 6 5 6 6 6 6 7 7 7 6 6 6 7 7 7 7 7 7 7 7 7 8 8 8 8 9 8 9 9 11 17 24 23 23 24 22 15 16 19 14 8 8 7 8 8 8 8 7 7 7 8 8 8 7 7 6 6
Wind_Direction
121 128 118 98 91 85 83 76 67 68 65 58 64 54 39 37 33 20 11 20 11 9 10 3 1 358 354 353 352 348 350 347 352 350 347 341 340 332 330 332 326 320 317 313 310 306 304 302 305 307 304 304 300 302 299 289 284 275 270 267 267 256 245 253 265 276 276 221 270 284 287 299 288 241 270 264 270 269 265 264 260 256 254 251 253
130 117 98 108 107 101 92 83 77 63 63 41 40 28 17 20 17 15 22 357 13 1 357 351 351 345 347 334 333 331 327 330 325 335 328 327 324 323 321 319 313 310 312 311 316 316 311 308 306 306 299 293 298 300 299 301 298 293 282 269 265 273 235 253 267 271 283 277 273 283 287 275 280 270 254 282 268 263 269 269 257 246 252 252 252
128 126 121 114 112 97 88 64 57 50 53 34 29 14 1 360 20 32 9 349 346 347 335 336 329 331 329 321 324 327 326 322 318 317 313 312 312 312 311 310 310 310 312 308 311 311 310 307 305 312 308 301 297 293 295 292 288 287 288 282 278 274 266 240 263 275 279 280 267 278 283 286 273 286 273 267 274 266 273 270 267 262 248 251 252
136 123 120 107 98 91 79 59 69 53 51 29 20 348 353 344 11 37 20 352 351 331 336 331 335 331 330 325 329 327 325 321 318 312 308 310 308 307 307 304 300 300 298 302 306 306 302 304 303 309 308 301 300 302 295 284 286 285 283 284 279 281 276 262 250 264 279 286 276 261 277 284 284 279 280 268 277 274 259 269 263 262 260 250 246
138 131 133 127 94 100 82 62 66 42 24 14 354 350 2 20 27 19 23 6 358 349 347 354 344 345 343 337 332 333 326 322 320 313 307 300 297 301 303 302 300 297 295 294 296 298 296 291 297 303 305 300 298 298 301 298 292 287 283 281 280 279 278 272 270 264 274 276 283 273 267 269 270 281 285 287 284 274 267 258 260 257 259 248 252
147 138 132 138 127 94 73 66 66 32 338 329 1 24 37 30 26 13 16 359 355 356 352 353 348 338 338 331 328 325 327 323 318 314 309 310 306 302 301 300 298 298 297 296 295 295 295 295 295 298 297 296 295 297 298 295 295 290 287 285 282 278 276 274 269 271 269 273 278 286 269 269 276 263 275 274 281 287 281 268 259 248 251 263 247
152 145 129 132 136 129 94 98 174 205 249 16 49 44 40 23 23 11 2 360 350 351 348 343 340 335 326 328 329 331 326 321 318 314 316 313 310 306 307 305 302 301 298 297 298 295 293 293 292 292 289 287 290 293 295 291 287 285 284 287 285 282 279 276 274 270 270 276 279 274 279 267 258 276 270 257 260 264 280 292 282 249 238 239 262
156 149 142 139 139 129 145 200 177 147 82 73 68 43 36 24 20 2 360 1 1 349 344 339 331 330 321 335 329 328 323 321 317 318 312 311 310 308 307 306 303 300 297 294 293 292 294 294 293 293 292 288 288 289 288 288 287 281 280 279 281 281 281 283 282 277 274 273 272 282 276 279 271 263 278 280 280 271 245 254 277 282 264 240 238
162 153 149 159 157 150 163 152 112 98 84 82 51 30 22 20 7 359 5 8 359 338 343 333 325 330 333 329 330 326 322 319 326 318 316 313 310 306 307 303 301 298 297 295 293 295 293 294 293 293 292 292 292 292 290 290 291 292 290 289 291 288 284 280 278 277 275 275 277 273 276 276 271 275 276 265 254 265 277 221 262 268 279 276 258
162 162 166 166 149 146 144 131 123 123 88 55 47 17 14 10 357 8 19 4 346 340 333 325 330 332 329 325 326 321 314 319 309 311 314 313 312 308 304 301 300 301 301 302 299 296 290 291 292 301 302 300 299 298 295 292 289 285 286 286 283 280 279 281 281 283 287 286 283 288 286 278 273 265 268 264 268 275 279 276 269 277 279 273 274
167 167 171 155 146 137 133 137 119 111 84 68 33 23 13 2 13 19 11 359 348 346 329 335 343 328 327 324 322 319 315 308 310 312 313 312 311 307 306 305 303 303 302 302 303 306 307 306 303 304 303 303 304 301 298 298 297 294 291 288 284 281 282 281 278 279 278 271 277 276 273 279 277 265 258 272 269 266 272 275 274 278 275 282 282
167 170 155 146 141 138 137 140 123 96 65 27 20 10 7 4 12 7 357 356 348 337 339 339 329 328 322 320 314 312 309 309 310 311 311 311 311 308 306 302 302 300 299 298 299 302 304 304 303 304 300 297 295 296 296 294 293 292 290 287 284 281 278 278 283 283 279 280 276 271 274 272 281 276 268 263 270 271 263 264 266 268 273 269 264
157 152 147 139 136 127 134 125 114 69 38 24 13 3 11 3 4 357 356 344 333 347 340 335 329 330 323 318 315 310 303 308 307 310 311 313 313 312 304 302 298 297 297 298 298 299 300 299 298 294 293 295 295 291 287 283 285 287 289 291 292 292 290 285 279 277 282 280 279 281 277 286 288 287 293 294 289 275 270 263 259 260 262 265 265
150 147 139 133 130 130 122 108 72 47 29 19 13 7 12 7 350 339 336 340 344 334 333 329 326 322 320 314 309 307 302 305 308 311 314 314 314 313 305 304 299 298 299 299 297 294 293 293 294 293 292 292 292 292 289 288 287 289 291 292 291 288 287 287 288 288 289 287 286 281 282 284 282 286 291 296 295 294 297 289 289 276 269 265 271
140 142 138 130 125 127 128 111 74 40 22 21 11 7 5 346 347 345 348 337 337 330 327 324 317 315 310 306 302 302 299 306 310 314 315 315 314 315 308 305 299 296 294 292 290 289 288 289 289 289 290 289 287 286 288 289 288 283 280 278 280 283 284 284 282 278 274 270 273 275 279 280 281 285 292 295 283 279 273 273 277 279 280 279 272
141 134 139 147 148 149 140 123 108 56 29 11 15 354 355 349 339 337 333 321 300 303 299 301 305 307 302 300 301 297 298 308 311 314 314 315 315 314 309 299 296 292 292 294 292 289 287 285 287 288 288 287 286 288 288 289 286 283 279 273 267 264 260 262 274 275 274 274 272 273 272 273 274 273 274 272 270 272 278 282 278 269 266 262 262
158 156 154 157 156 153 139 126 105 62 33 13 0 347 345 335 335 330 326 318 316 314 304 302 300 300 301 299 299 297 296 307 311 313 315 315 316 302 298 293 293 293 292 294 291 288 287 284 285 288 288 287 286 288 288 288 285 277 269 266 263 263 264 256 266 276 278 277 276 276 278 280 282 283 284 284 285 288 288 280 268 267 267 267 262
166 161 163 161 156 144 130 116 86 52 28 2 337 325 320 309 303 322 319 317 313 306 306 302 291 291 294 296 295 298 299 307 311 312 312 312 310 306 300 286 279 286 289 290 291 287 286 288 287 287 286 283 284 285 285 285 278 275 275 275 272 265 260 258 262 262 264 270 273 275 277 278 279 280 281 283 284 285 284 279 286 295 281 273 269
171 169 164 157 139 138 126 98 81 50 4 317 314 307 308 298 297 301 289 290 292 302 302 299 295 287 281 286 296 298 295 302 307 307 308 308 308 297 289 284 275 269 288 289 283 281 273 273 280 285 287 286 287 288 288 289 285 279 273 268 271 268 268 266 262 264 262 261 260 261 264 265 268 267 265 269 273 275 271 274 286 281 282 281 279
166 147 138 137 140 125 105 93 76 37 301 303 295 285 288 301 299 306 302 293 297 301 295 292 294 291 288 287 287 287 293 294 297 302 305 305 306 301 290 285 282 279 270 270 279 270 259 257 269 284 289 288 287 288 288 287 284 276 271 268 267 270 267 267 261 262 264 258 263 259 260 260 260 259 257 257 258 256 255 255 258 261 266 271 272
144 144 137 137 129 116 99 109 133 270 252 262 275 295 292 296 307 307 306 305 297 296 293 291 288 287 286 281 281 282 278 290 292 299 304 305 304 304 287 279 279 278 277 275 268 273 262 249 238 269 287 288 288 287 287 284 282 278 272 268 264 267 271 267 269 267 268 267 260 261 258 258 257 256 258 257 252 246 244 246 248 250 255 263 265
138 139 145 140 129 109 117 102 179 223 258 270 294 286 272 281 291 297 294 300 299 292 293 291 290 289 287 281 277 279 280 283 289 296 302 303 304 303 298 285 289 289 289 281 279 280 278 272 264 282 288 288 286 286 285 284 281 278 276 277 280 286 288 284 277 269 265 271 268 266 266 265 266 260 256 255 252 248 245 240 242 244 246 248 253
141 143 142 141 134 138 165 189 254 217 260 259 269 285 288 296 291 293 297 296 290 290 290 289 292 293 294 285 273 274 275 272 285 290 298 302 305 304 301 300 302 300 294 288 284 281 269 275 274 283 287 286 285 282 280 280 283 285 285 287 292 295 296 297 300 293 284 278 277 274 271 267 268 265 260 262 258 256 257 254 254 256 256 256 255
138 144 152 156 142 169 205 245 254 250 262 275 278 281 290 287 286 281 283 283 287 289 285 286 290 293 299 300 287 272 269 269 276 289 294 299 305 304 304 303 302 298 292 288 291 287 285 281 277 281 284 287 288 289 290 294 295 295 299 300 301 302 299 295 289 285 282 281 276 273 271 264 261 264 262 260 263 262 262 260 260 259 260 267 265
144 163 174 176 182 215 299 275 270 267 259 238 268 276 288 288 297 272 270 279 276 282 284 279 282 289 293 293 298 292 282 280 284 284 296 306 308 307 304 302 302 302 300 291 285 285 292 295 297 297 298 300 302 303 304 300 296 295 294 294 296 296 292 285 286 284 279 274 272 271 271 269 262 264 267 268 268 267 266 268 266 266 265 263 262
161 183 189 188 209 191 291 291 270 255 258 241 233 245 256 278 277 285 271 269 266 269 279 279 277 278 280 286 291 297 298 299 295 290 293 303 302 300 299 300 300 300 299 299 301 300 299 296 294 294 294 293 291 284 275 283 290 295 297 299 299 292 287 287 283 280 273 273 270 271 271 270 267 264 262 264 265 262 262 265 268 262 257 259 260
171 178 192 200 200 183 214 258 277 268 252 245 237 244 247 249 257 269 262 268 269 263 269 272 277 274 274 286 292 298 305 298 295 301 304 299 292 288 289 287 293 300 298 286 290 289 287 287 295 301 306 304 302 299 298 299 301 299 291 283 279 280 279 272 270 271 271 267 269 266 265 265 266 263 261 255 257 258 253 254 257 259 259 256 259
181 190 198 189 209 199 211 239 245 264 264 248 261 264 252 235 245 252 254 256 265 269 260 263 263 269 277 286 293 293 287 292 304 306 302 295 295 301 300 300 299 293 295 299 302 305 310 319 316 314 307 304 303 301 295 293 293 296 292 291 288 283 278 276 276 268 266 268 268 272 270 271 267 261 261 256 258 258 251 249 255 262 255 256 255
172 182 189 172 216 212 213 224 229 241 261 256 242 232 244 253 257 261 243 232 238 252 262 249 257 264 262 253 262 278 302 306 304 306 306 313 315 312 308 308 314 320 320 319 318 319 319 315 314 314 319 319 319 313 310 302 293 288 288 287 284 284 285 287 283 276 273 273 273 273 275 271 268 263 261 260 258 258 253 251 252 256 260 254 257
173 199 194 198 217 213 225 226 228 232 239 253 260 269 246 254 254 250 246 254 258 257 258 256 260 273 282 284 290 296 302 302 307 311 315 314 314 317 321 322 324 325 326 326 326 325 330 325 321 323 319 317 311 309 311 317 316 312 307 306 303 299 294 288 278 284 284 280 279 278 273 272 268 266 262 262 264 259 255 256 260 254 257 254 256
189 202 196 208 206 207 210 224 226 226 233 237 244 263 293 285 284 281 277 276 273 274 279 281 286 288 287 295 303 302 303 307 311 314 315 318 325 329 327 328 333 333 332 334 348 343 333 329 323 320 321 322 322 324 324 319 316 314 312 313 308 301 297 284 287 287 290 289 286 277 273 271 270 269 268 264 266 264 266 258 257 258 254 256 252
193 203 198 204 204 206 208 215 225 231 241 238 241 256 272 296 298 292 290 286 288 288 286 288 287 286 294 304 309 306 308 310 314 316 319 329 334 332 333 339 340 339 343 357 349 337 329 324 321 320 321 320 319 320 318 315 312 312 310 308 305 303 302 299 305 303 295 289 285 281 278 275 272 271 268 267 266 265 264 268 258 253 245 242 241
194 196 194 198 202 206 211 214 224 221 235 238 244 238 254 268 295 308 310 307 304 295 292 291 291 302 311 313 312 312 313 316 317 319 328 338 337 336 339 344 341 344 352 356 339 329 326 318 310 312 315 310 314 313 310 307 305 307 308 305 303 301 296 296 300 296 295 291 289 285 282 279 275 272 268 264 265 269 269 266 265 263 263 259 253
194 189 193 196 198 210 212 219 220 227 222 227 229 234 240 247 260 279 305 322 329 331 296 287 302 308 308 311 315 316 317 320 321 326 338 342 341 343 348 339 335 347 354 334 320 316 316 314 311 310 310 307 306 308 306 306 307 302 301 300 297 296 296 297 298 298 298 298 295 293 288 281 273 270 268 265 260 261 266 270 271 276 288 279 253
193 203 197 192 199 211 216 221 219 222 221 228 231 234 242 244 250 260 273 292 300 292 306 307 303 293 300 305 310 317 321 324 325 334 344 347 345 352 349 340 344 342 345 317 306 309 313 317 313 314 312 312 310 310 308 307 305 303 303 303 302 302 303 303 300 300 299 300 304 304 298 287 279 267 266 269 273 271 270 270 273 282 291 297 281
193 201 212 213 213 218 223 223 221 222 227 237 231 236 233 233 240 246 263 267 269 284 284 283 294 306 308 309 315 321 324 328 327 341 349 348 351 1 350 338 333 330 329 327 330 324 319 310 311 306 307 303 305 304 305 305 304 302 299 301 305 303 302 302 304 304 304 306 309 313 312 303 289 278 270 262 262 264 265 270 277 283 284 286 290
196 211 215 216 213 224 232 228 229 228 239 236 232 231 229 235 242 246 252 253 267 261 268 292 312 312 315 290 317 327 326 327 331 345 351 346 349 359 326 325 317 314 318 323 323 323 318 312 306 304 305 306 305 303 303 303 302 301 303 303 298 301 301 300 308 310 308 308 312 313 314 312 308 297 281 275 272 270 269 271 273 276 279 277 278
201 210 220 217 220 225 229 237 235 237 237 239 234 231 243 247 245 245 245 254 255 264 281 288 291 288 301 305 324 315 311 314 328 340 348 351 349 348 339 304 294 293 302 304 308 308 308 307 309 309 308 306 304 306 305 303 303 304 304 305 306 303 310 311 310 307 307 307 309 312 312 310 312 313 310 298 283 276 275 274 274 276 277 277 269
204 223 227 229 228 218 221 237 238 232 239 234 235 234 242 243 246 244 248 249 256 267 267 274 278 280 279 293 311 307 307 317 344 334 334 327 309 289 290 294 290 298 304 312 316 317 312 313 314 312 308 308 306 305 305 304 304 305 305 307 309 309 312 310 310 310 311 312 312 311 310 308 309 311 311 308 306 299 291 282 276 272 271 271 261
196 207 224 230 232 242 227 227 227 230 232 232 242 231 243 243 243 247 250 249 258 257 258 269 274 270 278 294 291 290 294 326 330 321 318 316 315 313 308 315 323 325 329 327 326 323 319 315 314 313 311 310 308 306 306 306 306 305 307 309 311 312 313 312 310 312 313 314 312 313 312 311 311 307 307 310 310 308 302 292 282 272 264 257 253
204 208 205 225 231 231 246 245 245 243 241 241 240 240 238 242 242 242 240 246 254 259 264 263 264 270 273 277 288 302 327 333 319 313 305 308 310 313 319 320 325 326 325 322 318 317 315 313 314 312 310 307 308 308 309 310 309 311 312 312 310 311 312 314 314 313 313 313 313 313 313 313 312 313 312 311 313 311 305 301 292 279 267 255 245
206 207 218 221 230 234 234 242 241 243 241 243 242 238 241 246 246 241 245 251 251 255 266 267 267 266 276 289 300 313 333 335 306 298 301 301 303 306 309 310 308 308 310 311 314 314 314 313 311 310 310 312 314 314 314 314 316 317 317 317 315 315 317 319 321 318 318 316 316 315 314 313 314 314 311 310 311 311 310 309 306 299 287 276 276
203 209 212 213 212 220 228 240 241 243 247 245 249 247 247 243 241 242 250 252 253 257 257 267 275 275 279 290 302 315 325 298 283 290 292 295 295 298 299 300 302 300 297 294 295 297 301 304 306 307 308 309 310 312 313 312 313 316 318 317 316 314 316 319 322 323 322 320 319 316 315 313 315 314 314 314 315 316 315 319 321 323 323 330 37
211 214 214 214 218 223 228 228 238 238 239 242 244 243 241 240 244 247 247 254 256 253 253 259 267 281 284 292 302 307 285 281 280 283 283 289 289 290 294 297 302 302 301 298 295 294 298 301 304 303 301 301 303 304 303 304 310 312 318 320 318 316 319 323 325 325 323 318 313 316 318 316 315 316 314 317 321 320 323 328 332 331 337 345 8
209 214 218 222 223 220 235 230 233 241 247 246 249 250 248 245 250 249 245 250 253 253 253 256 261 268 280 285 292 291 288 284 286 287 287 283 286 286 290 296 300 302 301 299 298 300 299 301 301 306 308 308 307 308 308 309 311 312 316 320 320 320 324 326 326 323 321 320 312 306 312 317 320 321 321 322 322 323 324 332 332 341 350 355 12
211 217 220 222 229 230 233 234 235 238 240 242 245 253 250 248 245 245 248 247 248 252 256 256 257 259 263 275 280 280 280 285 281 279 280 284 281 284 283 288 293 296 295 295 300 301 299 300 305 307 309 309 312 311 312 312 314 314 317 321 321 319 319 320 322 324 324 324 324 319 315 320 321 320 324 326 323 329 330 335 340 349 351 1 18
217 216 225 224 229 235 236 236 234 239 241 246 242 244 250 245 240 243 242 242 247 248 252 258 261 261 261 264 269 272 274 275 277 282 278 278 279 281 287 290 297 298 299 300 298 298 299 301 302 303 305 306 308 309 311 313 314 314 319 323 323 327 328 329 329 331 329 328 326 324 323 322 326 326 329 332 333 335 336 341 343 351 355 9 12
217 218 222 226 229 237 245 239 244 249 244 242 241 245 248 248 246 244 242 247 250 254 257 260 257 258 263 265 261 265 270 271 274 272 278 277 278 281 288 294 297 298 302 302 302 300 300 302 303 305 305 308 311 312 312 313 314 316 318 324 328 332 330 331 333 336 337 333 328 327 329 329 331 334 336 338 341 340 346 349 349 357 5 11 27
212 217 225 227 230 235 242 241 238 242 243 244 250 253 251 252 250 247 246 247 246 248 245 254 260 261 258 263 267 268 269 274 278 282 280 280 282 284 286 290 294 297 298 300 301 305 304 305 303 303 302 304 305 307 310 312 315 316 319 324 329 331 332 336 337 341 342 338 331 331 332 335 339 341 346 348 347 349 355 359 4 7 14 24 32
218 220 223 230 235 242 239 237 240 243 245 242 242 249 251 250 252 251 247 245 249 251 248 246 254 257 262 273 276 275 279 279 281 283 285 285 284 285 289 293 294 295 296 297 300 301 305 302 304 302 305 303 305 305 307 308 311 313 315 319 322 329 335 338 339 346 351 343 339 335 333 335 340 348 354 356 352 359 6 6 7 15 19 29 33
231 230 231 233 238 244 242 240 246 242 240 242 238 244 249 246 247 250 247 246 248 254 255 251 254 259 259 255 263 272 276 275 273 274 278 281 284 289 290 293 295 299 296 293 296 300 300 303 304 305 306 304 307 305 307 306 308 307 311 317 323 333 339 343 345 350 353 352 339 339 343 343 348 352 357 360 2 3 10 15 18 17 22 24 25